Location: Dompnac
(44.5644°N, 4.1026°E)
Time: 10:43:56
(UTC+00:00)

Cosmos 1844 - Pass Details

Date: 19 September 2020
Orbit: 824 x 866 km, 70.9° (Epoch: 29 October)

Event Time Altitude Azimuth Distance (km) Brightness Sun altitude
Rises 19:11:05 0° 182° (S) 3,413 6.7 -15.7°
Reaches altitude 10° 19:13:39 10° 175° (S) 2,475 5.9 -16.2°
Maximum altitude 19:18:56 41° 107° (ESE) 1,206 4.0 -17.0°
Drops below altitude 10° 19:24:12 10° 39° (NE) 2,464 5.9 -17.9°
Sets 19:26:45 0° 32° (NNE) 3,396 6.7 -18.4°
